Lid_Strength_Index
2 2 2 2 2 3 6 10 15 7 5 11 12 17 11 9 9 8 9 9 10 11 11 13 13 14 12 8 9 12 10 12 16 14 10 10 11 13 13 18 19 17 18 18
2 3 2 2 2 3 8 11 11 7 7 20 17 9 9 8 9 9 10 10 9 9 12 14 12 12 8 8 9 11 10 13 17 16 13 12 13 12 12 13 14 18 20 17
3 3 3 2 2 2 7 12 13 12 8 12 12 11 11 10 7 8 8 9 9 10 12 12 14 12 9 8 8 7 9 13 15 17 16 13 15 13 12 13 17 17 16 15
3 3 3 3 2 3 6 10 14 12 14 12 11 9 10 11 11 8 8 10 10 11 13 12 13 11 10 9 8 9 11 14 14 13 12 12 13 13 13 14 13 16 14 14
3 3 2 2 2 2 6 12 11 8 11 9 10 9 11 11 10 10 10 10 9 9 12 11 13 11 10 11 9 11 10 15 13 15 12 12 14 12 13 13 13 13 13 13
2 2 2 2 2 2 7 6 5 7 9 10 12 12 10 10 9 8 8 8 10 11 9 8 7 7 8 9 11 12 12 13 15 18 14 14 16 13 13 12 11 12 15 11
2 2 2 1 2 2 6 7 6 9 13 11 10 9 9 10 9 11 8 7 9 7 5 5 7 8 8 9 9 9 12 12 14 16 16 22 14 10 11 12 11 10 10 10
2 2 1 1 2 1 4 6 6 7 13 9 10 9 10 9 9 9 8 7 6 5 7 11 12 12 12 11 10 10 10 12 15 18 18 15 13 12 12 13 13 10 11 9
2 2 2 2 1 1 2 4 3 6 11 12 8 10 10 11 10 10 8 7 6 6 10 11 15 16 14 14 13 9 10 11 14 15 18 22 15 10 8 9 16 11 10 9
2 2 2 2 1 1 1 3 2 5 10 9 8 11 11 8 9 11 10 10 9 8 12 14 15 15 11 15 14 14 14 13 15 16 16 15 10 9 8 16 15 13 12 14
2 2 2 2 1 0 1 3 2 4 8 9 7 7 10 9 10 13 10 11 10 10 12 13 13 14 12 13 12 13 14 15 15 14 17 18 8 9 13 10 11 13 13 14
2 2 2 2 1 0 0 4 2 3 6 9 6 5 5 7 7 9 9 10 9 9 11 11 10 12 12 13 16 10 15 12 14 13 14 9 9 9 10 11 12 11 13 13
2 2 1 1 1 0 1 4 3 3 5 7 9 9 6 5 5 5 10 8 6 7 6 8 10 13 11 14 14 13 13 10 13 12 11 11 10 10 12 12 13 13 12 13
2 1 1 1 1 0 0 3 3 4 7 11 11 6 7 5 5 5 5 6 4 6 7 8 10 12 8 12 13 15 14 13 14 12 10 10 12 12 13 13 14 14 14 15
1 1 1 0 0 0 1 2 2 3 7 13 11 7 6 5 6 6 6 6 7 8 11 9 12 9 9 10 12 17 14 15 16 15 11 12 14 14 14 15 16 15 16 16
1 1 0 -0 0 0 2 7 2 2 3 8 14 8 8 6 6 7 8 8 7 8 8 8 9 6 9 12 15 15 13 13 12 12 11 12 13 14 14 16 16 16 17 17
1 1 -0 -0 0 2 5 6 4 2 3 7 11 12 8 5 6 7 8 6 7 8 7 10 9 9 10 14 17 14 14 12 12 12 10 13 13 15 15 15 16 16 17 18
1 -0 -0 -0 0 1 4 3 1 2 5 6 11 13 10 5 9 9 7 9 8 7 8 9 9 11 12 17 15 14 14 13 13 13 13 13 14 14 15 15 16 18 18 19
-0 -0 -0 1 4 5 3 1 1 2 5 10 10 12 15 5 7 6 7 7 12 8 9 9 10 14 18 16 15 16 15 16 16 14 14 15 16 16 16 16 16 18 18 19
-0 2 5 9 5 1 1 4 7 7 7 6 12 10 11 7 7 9 10 8 10 12 10 11 15 19 15 15 15 16 16 16 15 15 16 16 17 17 17 17 17 18 19 19
3 6 7 3 0 4 6 9 9 9 10 8 8 10 12 5 9 10 8 10 9 13 11 12 16 19 16 15 16 16 16 16 16 16 16 16 17 17 18 18 19 19 20 21
3 3 2 3 6 7 9 11 10 11 12 10 10 9 9 7 7 9 9 11 10 14 10 14 21 18 16 16 17 17 17 17 17 17 17 17 18 18 19 20 21 22 22 24
2 4 7 7 8 11 15 15 13 13 13 10 8 9 8 7 7 9 9 12 13 11 19 21 22 17 17 17 17 17 17 17 18 19 19 20 21 21 21 23 24 24 25 26
7 8 12 11 13 15 14 13 15 12 8 9 8 8 9 9 10 10 16 14 11 17 21 21 20 19 18 18 18 19 22 22 22 24 23 23 24 26 26 27 29 26 28 30
10 10 13 17 14 13 10 9 9 9 8 8 9 10 9 13 14 13 13 15 17 20 21 25 21 20 20 21 22 23 25 26 25 26 25 28 26 25 27 29 29 27 29 29
10 14 15 13 14 12 11 10 10 8 8 9 10 13 16 16 15 15 17 18 21 24 27 24 21 22 22 22 21 22 23 24 26 28 26 26 27 26 27 28 28 30 29 31
13 16 15 17 17 14 12 11 11 9 9 13 14 17 16 14 18 19 19 22 24 25 22 22 22 21 22 24 24 23 23 24 25 26 25 26 27 26 23 24 25 23 24 28